STARLINK-5913 (55937 NORAD) Tracking and Keplerian Element Data

This shows tracking and keplerian element data for the satellite.

Feedback or suggestion? Click here.




ElementValue
Catalog55937
NameSTARLINK-5913
Epoch Orbit840
Epoch Day126.9320892
Epoch Year2023
RAAN40.0342
Inclination70.0019
Eccentricity0.0004185
Argument of Perigee267.8913
Mean Anonmoly92.1803
Mean Motion15.69932855
Decay Rate1.65E-05
L11 55937U 23037Z 23126.93208920 .00001650 00000+0 15487-4 0 9991
L22 55937 70.0019 40.0342 0004185 267.8913 92.1803 15.69932855 8403



Live tracking and technical data element details for STARLINK-5913 (NORAD 55937). STARLINK-5913 can be tracked NOW for your location showing map with azimuth and elevation plus other details from your city location.







IsCatalogInMostPopularTable: catalog: 55937, numindb: 8
Update: records affected: 1



GetName: 55937 STARLINK-5913

Hit Count: updated at: Tue, 06 Jun 2023 03:36:06 GMT